Location: Barruelo
(41.2448°N, 3.8231°W)
Time: 17:18:20
(UTC+00:00)

Cosmos 967 Rocket - Pass Details

Date: 11 December 2025
Orbit: 941 x 995 km, 65.8° (Epoch: 15 January)

Event Time Altitude Azimuth Distance (km) Brightness Sun altitude
Rises 18:53:05 0° 204° (SSW) 3,626 8.0 -23.0°
Reaches altitude 10° 18:55:36 10° 203° (SSW) 2,691 7.2 -23.5°
Maximum altitude 19:01:54 77° 119° (ESE) 1,000 4.3 -24.7°
Enters shadow 19:03:37 51° 45° (NE) 1,217 4.6 -25.0°
